STARLINK-11300 [DTC] (61243 NORAD) Tracking and Keplerian Element Data

This shows tracking and keplerian element data for the satellite.

Feedback or suggestion? Click here.




ElementValue
Catalog61243
NameSTARLINK-11300 [DTC]
Epoch Orbit279
Epoch Day286.82005055
Epoch Year2024
RAAN66.0716
Inclination53.1548
Eccentricity0.0001126
Argument of Perigee74.0892
Mean Anonmoly286.0253
Mean Motion15.76774141
Decay Rate-6.41E-05
L11 61243U 24175A 24286.82005055 -.00006410 00000+0 -35124-4 0 9993
L22 61243 53.1548 66.0716 0001126 74.0892 286.0253 15.76774141 2797



Live tracking and technical data element details for STARLINK-11300 [DTC] (NORAD 61243). STARLINK-11300 [DTC] can be tracked NOW for your location showing map with azimuth and elevation plus other details from your city location.







IsCatalogInMostPopularTable: catalog: 61243, numindb: 23
Update: records affected: 1



GetName: 61243 STARLINK-11300 [DTC]

Hit Count: updated at: Wed, 04 Dec 2024 12:43:35 GMT